Location: Quedlinburg
(51.7921°N, 11.1414°E)
Time: 06:16:45
(UTC+02:00)

BEESAT - Pass Details

Date: 16 March 2026
Orbit: 683 x 693 km, 98.4° (Epoch: 17 April)

Event Time Altitude Azimuth Distance (km) Brightness Sun altitude
Rises 01:39:48 0° 4° (N) 3,068 ? -37.6°
Reaches altitude 10° 01:42:48 10° 343° (NNW) 2,145 ? -37.4°
Enters shadow 01:43:13 11° 339° (NNW) 2,045 ? -37.3°
